Regional Weather Roundup
Issued by NWS

Home | Current Version | Previous Version | Text Only | Print | Product List | Glossary Off
Versions: 1 2 3 4 5 6 7 8 9 10 11 12 13 14 15 16 17 18 19 20 21 22 23 24 25 26 27 28 29 30 31 32 33 34 35 36 37 38 39 40 41 42 43 44 45 46 47 48 49 50

000
ASUS45 KBOI 282110
RWRID
WEATHER ROUNDUP FOR IDAHO
NATIONAL WEATHER SERVICE BOISE ID
200 PM MST WED JAN 28 2015

NOTE: "FAIR" INDICATES FEW OR NO CLOUDS BELOW 12000 FEET
WITH NO SIGNIFICANT WEATHER AND/OR OBSTRUCTIONS TO VISIBILITY

IDZ012-014-282200-
SOUTHWEST IDAHO


CITY           SKY/WX    TMP DP  RH WIND       PRES   REMARKS
BOISE          MOSUNNY   43  37  81 CALM      30.35F FOG
CALDWELL       MOSUNNY   43  36  75 CALM      30.38S
MOUNTAIN HOME  MOSUNNY   45  45 100 NW17      30.32F
$$

IDZ016-017-282200-
SOUTHCENTRAL IDAHO


CITY           SKY/WX    TMP DP  RH WIND       PRES   REMARKS
BURLEY         CLOUDY    43  36  76 W12       30.31S
JEROME         CLOUDY    38  37  97 W9        30.32F FOG     WCI  31
TWIN FALLS     MOSUNNY   48  37  65 W15       30.31F
$$

IDZ019>023-282200-
SOUTHEAST IDAHO


CITY           SKY/WX    TMP DP  RH WIND       PRES   REMARKS
IDAHO FALLS    FOG       36  35  96 SW13      30.30F VSB 1   WCI  27
POCATELLO      CLOUDY    38  38 100 SW16      30.33S WCI  29
REXBURG        FOG       34  34 100 SW10      30.29S VSB 1/4 WCI  26
$$

IDZ006-010-011-018-031-032-282200-
CENTRAL IDAHO MOUNTAINS


CITY           SKY/WX    TMP DP  RH WIND       PRES   REMARKS
MCCALL         SUNNY     43  28  55 W6        30.28F
HAILEY         FOG       34  34 100 SE12      30.23F VSB 1/2 WCI  25
STANLEY          N/A     36  30  79 CALM      30.31S
SALMON         SUNNY     36  28  75 CALM      30.31F
CHALLIS        CLOUDY    36  33  89 CALM      30.30F
$$

IDZ002-004-006-007-026-282200-
NORTHERN IDAHO


CITY           SKY/WX    TMP DP  RH WIND       PRES   REMARKS
LEWISTON       CLOUDY    42  39  89 CALM      30.39F
LOWELL           N/A     44  37  76 S3        30.39F
COEUR D`ALENE  CLOUDY    41  36  81 CALM      30.37S
MULLAN PASS    CLOUDY    30  28  92 CALM      30.29S
$$



USA.gov is the U.S. government's official web portal to all federal, state and local government web resources and services.